TimeEDT,TemperatureF,Dew PointF,Humidity,Sea Level PressureIn,VisibilityMPH,Wind Direction,Wind SpeedMPH,Gust SpeedMPH,PrecipitationIn,Events,Conditions,WindDirDegrees,DateUTC
12:56 AM,62.1,59.0,90,29.88,10.0,North,8.1,-,0.00,,Overcast,10,2013-06-19 04:56:00
1:56 AM,61.0,57.0,87,29.89,10.0,North,6.9,-,N/A,,Overcast,10,2013-06-19 05:56:00
2:56 AM,60.1,55.9,86,29.90,10.0,North,5.8,-,N/A,,Mostly Cloudy,10,2013-06-19 06:56:00
3:56 AM,57.9,55.0,90,29.90,10.0,NNW,5.8,-,N/A,,Clear,340,2013-06-19 07:56:00
4:56 AM,57.0,54.0,89,29.92,10.0,NNW,8.1,-,N/A,,Clear,330,2013-06-19 08:56:00
5:56 AM,57.0,54.0,89,29.93,10.0,NNW,10.4,-,N/A,,Clear,330,2013-06-19 09:56:00
6:56 AM,59.0,53.1,81,29.96,10.0,North,10.4,-,N/A,,Clear,350,2013-06-19 10:56:00
7:56 AM,60.1,52.0,75,29.99,10.0,NNW,11.5,-,N/A,,Mostly Cloudy,340,2013-06-19 11:56:00
8:56 AM,63.0,52.0,67,30.01,10.0,North,12.7,-,N/A,,Clear,350,2013-06-19 12:56:00
9:56 AM,66.9,50.0,54,30.02,10.0,North,9.2,-,N/A,,Clear,350,2013-06-19 13:56:00
10:56 AM,69.1,51.1,53,30.04,10.0,NNE,6.9,-,N/A,,Clear,20,2013-06-19 14:56:00
11:56 AM,71.1,50.0,47,30.04,10.0,NNW,9.2,18.4,N/A,,Scattered Clouds,340,2013-06-19 15:56:00
12:56 PM,72.0,48.0,43,30.04,10.0,NNW,15.0,19.6,N/A,,Scattered Clouds,330,2013-06-19 16:56:00
1:56 PM,72.0,46.9,41,30.04,10.0,NW,8.1,-,N/A,,Scattered Clouds,310,2013-06-19 17:56:00
2:56 PM,73.0,44.1,35,30.05,10.0,NW,11.5,19.6,N/A,,Partly Cloudy,320,2013-06-19 18:56:00
3:56 PM,73.0,46.0,38,30.06,10.0,North,11.5,16.1,N/A,,Partly Cloudy,350,2013-06-19 19:56:00
4:56 PM,73.9,43.0,33,30.05,10.0,North,5.8,-,N/A,,Partly Cloudy,10,2013-06-19 20:56:00
5:56 PM,73.0,45.0,37,30.05,10.0,NW,4.6,-,N/A,,Partly Cloudy,310,2013-06-19 21:56:00
6:56 PM,73.0,46.0,38,30.06,10.0,Calm,Calm,-,N/A,,Partly Cloudy,0,2013-06-19 22:56:00
7:56 PM,66.9,51.1,57,30.08,10.0,Calm,Calm,-,N/A,,Partly Cloudy,0,2013-06-19 23:56:00
8:56 PM,64.9,46.0,50,30.10,10.0,Calm,Calm,-,N/A,,Partly Cloudy,0,2013-06-20 00:56:00
9:56 PM,61.0,51.1,70,30.13,10.0,Calm,Calm,-,N/A,,Partly Cloudy,0,2013-06-20 01:56:00
10:56 PM,61.0,53.1,75,30.14,10.0,NE,3.5,-,N/A,,Clear,40,2013-06-20 02:56:00
11:56 PM,59.0,54.0,83,30.16,10.0,Calm,Calm,-,N/A,,Clear,0,2013-06-20 03:56:00